AAL1362 KPHX-KLAX

Flight info

Callsign AAL1362
Flight time 0h 59m
Altitude 32000
Route KEENS3 WLVRN ESTWD HLYWD1
Aircraft B738/M-SDE2E3FGHIRWXY/LB1

Departure

Time 2026-05-04 08:28
Airport Phoenix Sky Harbor International Airport (KPHX)

Arrival

Time 2026-05-04 09:27
Airport Los Angeles International Airport (KLAX)
Time Latitude Longitude Altitude Speed Heading
2026-05-04 07:56 33.43650 -112.00113 1123 ft 0 kts 271°
2026-05-04 08:16 33.43648 -112.00108 1114 ft 4 kts 236°
2026-05-04 08:16 33.43658 -112.00099 1122 ft 4 kts 231°
2026-05-04 08:16 33.43672 -112.00079 1115 ft 4 kts 210°
2026-05-04 08:17 33.43696 -112.00073 1117 ft 4 kts 174°
2026-05-04 08:17 33.43723 -112.00075 1118 ft 4 kts 180°
2026-05-04 08:17 33.43750 -112.00075 1118 ft 4 kts 180°
2026-05-04 08:17 33.43777 -112.00075 1120 ft 4 kts 180°
2026-05-04 08:19 33.43882 -112.00070 1120 ft 0 kts 206°
2026-05-04 08:20 33.43881 -112.00072 1121 ft 1 kts 218°
2026-05-04 08:20 33.43889 -112.00108 1123 ft 9 kts 294°
2026-05-04 08:20 33.43903 -112.00220 1124 ft 16 kts 271°
2026-05-04 08:21 33.43905 -112.00321 1124 ft 10 kts 271°
2026-05-04 08:21 33.43870 -112.00381 1116 ft 9 kts 191°
2026-05-04 08:21 33.43805 -112.00380 1121 ft 9 kts 180°
2026-05-04 08:21 33.43742 -112.00380 1123 ft 9 kts 180°
2026-05-04 08:22 33.43680 -112.00380 1120 ft 9 kts 180°
2026-05-04 08:22 33.43620 -112.00381 1121 ft 8 kts 180°
2026-05-04 08:24 33.43357 -112.00381 1120 ft 9 kts 180°
2026-05-04 08:24 33.43297 -112.00382 1119 ft 9 kts 180°
2026-05-04 08:24 33.43240 -112.00379 1123 ft 8 kts 164°
2026-05-04 08:24 33.43214 -112.00323 1119 ft 8 kts 94°
2026-05-04 08:25 33.43213 -112.00257 1123 ft 8 kts 90°
2026-05-04 08:25 33.43213 -112.00193 1120 ft 8 kts 90°
2026-05-04 08:25 33.43213 -112.00130 1126 ft 8 kts 90°
2026-05-04 08:25 33.43214 -111.99992 1119 ft 22 kts 90°
2026-05-04 08:26 33.43213 -111.99802 1126 ft 23 kts 91°
2026-05-04 08:27 33.43115 -112.01301 1297 ft 184 kts 269°
2026-05-04 08:28 33.43145 -112.02833 2446 ft 183 kts 265°
2026-05-04 08:28 33.43104 -112.04388 3364 ft 200 kts 264°
2026-05-04 08:28 33.43060 -112.06126 3824 ft 222 kts 263°
2026-05-04 08:28 33.42709 -112.08008 4220 ft 244 kts 247°
2026-05-04 08:29 33.42072 -112.09968 4924 ft 257 kts 246°
2026-05-04 08:29 33.41443 -112.11961 6141 ft 254 kts 247°
2026-05-04 08:29 33.40825 -112.13946 7205 ft 258 kts 247°
2026-05-04 08:31 33.40717 -112.31239 11610 ft 368 kts 277°
2026-05-04 08:33 33.43897 -112.52457 17463 ft 372 kts 276°
2026-05-04 08:33 33.44346 -112.55517 18182 ft 374 kts 276°
2026-05-04 08:35 33.45236 -112.77280 22314 ft 378 kts 268°
2026-05-04 08:35 33.45499 -112.80434 22799 ft 386 kts 278°
2026-05-04 08:35 33.46389 -112.83506 23305 ft 394 kts 286°
2026-05-04 08:35 33.47459 -112.86542 23737 ft 396 kts 287°
2026-05-04 08:37 33.54000 -113.04926 26058 ft 403 kts 286°
2026-05-04 08:37 33.55084 -113.08031 26365 ft 403 kts 286°
2026-05-04 08:37 33.56166 -113.11138 26686 ft 405 kts 285°
2026-05-04 08:38 33.57251 -113.14257 26977 ft 407 kts 285°
2026-05-04 08:38 33.58343 -113.17404 27280 ft 409 kts 285°
2026-05-04 08:38 33.59435 -113.20552 27603 ft 410 kts 285°
2026-05-04 08:40 33.67070 -113.42609 30219 ft 402 kts 285°
2026-05-04 08:40 33.68137 -113.45706 30775 ft 401 kts 285°
2026-05-04 08:40 33.69202 -113.48804 31102 ft 401 kts 285°
2026-05-04 08:41 33.70261 -113.51884 31517 ft 397 kts 284°
2026-05-04 08:41 33.71297 -113.54898 31970 ft 394 kts 284°
2026-05-04 08:41 33.72339 -113.57934 32023 ft 393 kts 284°
2026-05-04 08:41 33.73362 -113.60911 32031 ft 382 kts 284°
2026-05-04 08:42 33.74367 -113.63840 32018 ft 376 kts 284°
2026-05-04 08:42 33.75360 -113.66748 31823 ft 376 kts 284°
2026-05-04 08:42 33.76351 -113.69657 31813 ft 376 kts 284°
2026-05-04 08:43 33.78336 -113.75481 31812 ft 377 kts 284°
2026-05-04 08:43 33.80331 -113.81337 31823 ft 379 kts 284°
2026-05-04 08:44 33.82327 -113.87215 31820 ft 380 kts 284°
2026-05-04 08:46 33.90307 -114.10836 31802 ft 379 kts 282°
2026-05-04 08:46 33.91571 -114.16895 31800 ft 371 kts 275°
2026-05-04 08:47 33.92544 -114.23008 31807 ft 371 kts 275°
2026-05-04 08:47 33.93537 -114.29122 31807 ft 372 kts 275°
2026-05-04 08:48 33.94555 -114.35229 31793 ft 372 kts 275°
2026-05-04 08:48 33.95577 -114.41308 31782 ft 373 kts 275°
2026-05-04 08:49 33.96608 -114.47439 31821 ft 374 kts 275°
2026-05-04 08:50 34.00205 -114.68973 31788 ft 375 kts 275°
2026-05-04 08:51 34.01226 -114.75138 31791 ft 375 kts 275°
2026-05-04 08:51 34.02245 -114.81305 31789 ft 375 kts 275°
2026-05-04 08:52 34.03261 -114.87470 31771 ft 374 kts 275°
2026-05-04 08:52 34.04269 -114.93613 31769 ft 373 kts 275°
2026-05-04 08:54 34.08272 -115.18176 31789 ft 375 kts 274°
2026-05-04 08:55 34.09273 -115.24368 31788 ft 376 kts 274°
2026-05-04 08:55 34.10274 -115.30578 31794 ft 377 kts 274°
2026-05-04 09:01 34.13840 -115.95255 31936 ft 365 kts 259°
2026-05-04 09:01 34.13347 -116.00289 31926 ft 365 kts 259°
2026-05-04 09:02 34.12751 -116.06373 31932 ft 365 kts 259°
2026-05-04 09:02 34.12153 -116.12449 31939 ft 364 kts 259°
2026-05-04 09:03 34.11553 -116.18523 31938 ft 364 kts 258°
2026-05-04 09:03 34.10950 -116.24601 31925 ft 364 kts 258°
2026-05-04 09:04 34.10345 -116.30657 31774 ft 361 kts 258°
2026-05-04 09:04 34.10035 -116.33632 31441 ft 352 kts 258°
2026-05-04 09:04 34.09727 -116.36524 31024 ft 343 kts 257°
2026-05-04 09:04 34.09426 -116.39324 30559 ft 338 kts 257°
2026-05-04 09:05 34.09126 -116.42112 30110 ft 332 kts 257°
2026-05-04 09:05 34.08827 -116.44872 29618 ft 334 kts 257°
2026-05-04 09:05 34.08519 -116.47687 29096 ft 342 kts 257°
2026-05-04 09:05 34.08213 -116.50520 28579 ft 338 kts 257°
2026-05-04 09:06 34.07915 -116.53306 28091 ft 332 kts 257°
2026-05-04 09:07 34.06053 -116.72418 24789 ft 328 kts 258°
2026-05-04 09:08 34.05802 -116.75139 24302 ft 326 kts 258°
2026-05-04 09:08 34.05549 -116.77843 23854 ft 324 kts 258°
2026-05-04 09:08 34.05297 -116.80544 23356 ft 323 kts 258°
2026-05-04 09:08 34.05044 -116.83239 22840 ft 323 kts 258°
2026-05-04 09:09 34.04788 -116.85941 22354 ft 326 kts 259°
2026-05-04 09:09 34.04530 -116.88658 21912 ft 325 kts 259°
2026-05-04 09:09 34.04230 -116.91340 21419 ft 321 kts 257°
2026-05-04 09:09 34.03877 -116.93978 20970 ft 317 kts 257°
2026-05-04 09:10 34.03523 -116.96592 20520 ft 314 kts 257°
2026-05-04 09:10 34.03179 -116.99180 20110 ft 312 kts 257°
2026-05-04 09:10 34.02840 -117.01763 19667 ft 312 kts 257°
2026-05-04 09:10 34.02510 -117.04346 19239 ft 311 kts 258°
2026-05-04 09:11 34.02202 -117.06930 18811 ft 312 kts 259°
2026-05-04 09:11 34.01897 -117.09533 18363 ft 314 kts 259°
2026-05-04 09:11 34.01592 -117.12137 17895 ft 312 kts 259°
2026-05-04 09:11 34.01290 -117.14712 17433 ft 309 kts 259°
2026-05-04 09:12 34.00988 -117.17262 16994 ft 306 kts 259°
2026-05-04 09:12 34.00685 -117.19800 16620 ft 307 kts 259°
2026-05-04 09:14 33.98551 -117.37739 13417 ft 309 kts 259°
2026-05-04 09:14 33.98251 -117.40296 12978 ft 305 kts 259°
2026-05-04 09:14 33.97959 -117.42776 12567 ft 302 kts 259°
2026-05-04 09:14 33.97664 -117.45278 12194 ft 301 kts 260°
2026-05-04 09:15 33.97375 -117.47743 12078 ft 294 kts 261°
2026-05-04 09:15 33.97414 -117.50198 11846 ft 296 kts 277°
2026-05-04 09:15 33.97851 -117.52628 11616 ft 298 kts 279°
2026-05-04 09:15 33.98313 -117.55081 11389 ft 302 kts 279°
2026-05-04 09:17 34.00161 -117.73828 9216 ft 266 kts 262°
2026-05-04 09:18 33.99940 -117.76034 8856 ft 265 kts 262°
2026-05-04 09:18 33.99721 -117.78238 8521 ft 264 kts 262°
2026-05-04 09:18 33.99503 -117.80439 8191 ft 264 kts 262°
2026-05-04 09:18 33.99288 -117.82628 7888 ft 263 kts 262°
2026-05-04 09:19 33.99076 -117.84812 7597 ft 261 kts 262°
2026-05-04 09:19 33.98867 -117.86960 7473 ft 253 kts 262°
2026-05-04 09:19 33.98663 -117.89055 7333 ft 254 kts 262°
2026-05-04 09:19 33.98455 -117.91183 7021 ft 256 kts 262°
2026-05-04 09:20 33.98245 -117.93307 6737 ft 255 kts 263°
2026-05-04 09:20 33.98037 -117.95419 6452 ft 253 kts 263°
2026-05-04 09:20 33.97830 -117.97517 6160 ft 251 kts 262°
2026-05-04 09:20 33.97624 -117.99605 5880 ft 250 kts 262°
2026-05-04 09:21 33.97418 -118.01687 5597 ft 250 kts 262°
2026-05-04 09:21 33.97215 -118.03735 5335 ft 249 kts 262°
2026-05-04 09:21 33.97009 -118.05801 5084 ft 247 kts 262°
2026-05-04 09:21 33.96828 -118.07625 4926 ft 247 kts 262°
2026-05-04 09:22 33.96760 -118.08314 4803 ft 249 kts 262°
2026-05-04 09:22 33.96553 -118.10385 4477 ft 247 kts 262°
2026-05-04 09:22 33.96350 -118.12428 4150 ft 244 kts 262°
2026-05-04 09:22 33.96149 -118.14435 3839 ft 238 kts 262°
2026-05-04 09:23 33.95975 -118.16363 3645 ft 222 kts 264°
2026-05-04 09:23 33.95821 -118.18152 3401 ft 208 kts 263°
2026-05-04 09:23 33.95654 -118.19828 3151 ft 196 kts 262°
2026-05-04 09:23 33.95489 -118.21411 2896 ft 186 kts 262°
2026-05-04 09:25 33.94518 -118.30732 1357 ft 143 kts 262°
2026-05-04 09:25 33.94394 -118.31924 1169 ft 144 kts 262°
2026-05-04 09:26 33.94275 -118.33105 1000 ft 143 kts 263°
2026-05-04 09:26 33.94149 -118.34277 846 ft 141 kts 261°
2026-05-04 09:26 33.94014 -118.35462 631 ft 144 kts 264°
2026-05-04 09:26 33.93902 -118.36655 435 ft 143 kts 264°
2026-05-04 09:27 33.93778 -118.37855 236 ft 144 kts 265°
2026-05-04 09:27 33.93664 -118.39005 94 ft 128 kts 263°
2026-05-04 09:27 33.93577 -118.39849 96 ft 71 kts 263°
2026-05-04 09:27 33.93538 -118.40227 96 ft 36 kts 263°
2026-05-04 09:28 33.93537 -118.40398 96 ft 16 kts 279°
2026-05-04 09:28 33.93557 -118.40523 95 ft 15 kts 286°
2026-05-04 09:28 33.93582 -118.40604 93 ft 10 kts 293°
2026-05-04 09:28 33.93597 -118.40684 94 ft 10 kts 271°
2026-05-04 09:29 33.93591 -118.40764 93 ft 9 kts 268°
2026-05-04 09:29 33.93606 -118.40840 93 ft 9 kts 291°
2026-05-04 09:29 33.93652 -118.40889 95 ft 9 kts 339°
2026-05-04 09:29 33.93715 -118.40902 95 ft 10 kts 352°
2026-05-04 09:30 33.93765 -118.40906 95 ft 7 kts 11°
2026-05-04 09:30 33.93789 -118.40861 93 ft 7 kts 81°
2026-05-04 09:30 33.93796 -118.40806 95 ft 7 kts 82°
2026-05-04 09:30 33.93802 -118.40751 93 ft 7 kts 82°
2026-05-04 09:31 33.93808 -118.40697 93 ft 7 kts 84°
2026-05-04 09:31 33.93813 -118.40637 95 ft 9 kts 83°
2026-05-04 09:31 33.93822 -118.40553 94 ft 8 kts 77°
2026-05-04 09:31 33.93871 -118.40528 93 ft 9 kts 355°
2026-05-04 09:32 33.93934 -118.40539 93 ft 10 kts 352°
2026-05-04 09:32 33.94003 -118.40548 92 ft 10 kts 354°
2026-05-04 09:34 33.94040 -118.40616 96 ft 0 kts 266°